Dewpoint
45 35 31 21 14 13 11 10 13 20 43 51 53 50 50 53 51 48 63 62 61 61 64 65 68 69 70 71 71 71 71 72 72 71 70 70 71 70 70 69 69 66 65 65 67 67 68 67 67
42 31 16 16 13 11 11 11 12 28 48 47 46 53 54 56 60 61 61 61 61 62 64 65 68 69 70 70 70 70 70 70 71 71 71 70 70 70 68 66 65 63 63 67 68 67 66 67 67
34 32 9 12 12 11 12 13 11 36 45 43 51 54 56 54 60 61 63 62 62 63 65 65 66 68 69 69 69 69 69 69 70 70 70 69 69 68 67 66 65 65 65 66 66 67 67 67 65
27 14 10 6 8 12 14 14 17 23 46 51 52 53 57 58 59 63 63 63 63 63 63 65 65 66 69 69 69 69 69 69 69 70 70 68 67 66 64 64 64 66 66 68 66 67 67 66 64
20 12 7 4 7 12 9 14 30 41 46 48 48 49 54 58 62 63 62 63 63 63 64 65 66 66 67 68 68 68 68 68 68 69 69 69 68 67 67 67 66 67 66 65 65 66 66 66 63
10 10 7 6 7 8 8 13 19 34 46 47 47 50 52 59 59 61 62 63 64 63 65 65 66 66 66 66 66 66 67 67 67 68 68 68 68 67 68 67 68 67 64 62 61 62 63 63 64
8 7 7 5 6 7 10 12 13 12 15 38 47 44 51 52 59 59 61 62 64 63 64 64 65 66 65 65 64 64 65 66 66 67 67 66 66 66 66 66 66 66 66 66 66 63 63 65 64
10 7 4 4 4 5 4 12 15 13 11 44 47 43 42 50 57 58 57 60 61 63 64 63 64 64 62 62 64 64 64 64 65 66 66 65 65 65 65 65 65 64 64 63 64 65 65 64 63
9 7 7 9 7 9 8 12 15 16 16 24 44 45 47 50 59 57 56 56 56 60 61 63 63 63 61 59 61 64 64 64 64 65 65 63 62 62 61 63 63 62 61 60 59 59 60 59 59
10 8 15 13 10 11 14 15 12 10 19 33 48 53 56 58 57 57 55 52 49 54 54 56 59 61 61 59 60 61 63 63 63 63 63 63 62 60 61 61 62 60 60 59 58 58 57 55 54
29 17 17 19 19 18 21 21 20 15 20 32 47 53 55 56 55 56 54 48 46 48 53 56 58 59 58 59 61 62 61 62 61 61 61 61 60 60 59 59 59 57 58 56 56 55 54 53 54
17 21 20 20 21 21 21 22 21 33 18 25 50 53 54 54 54 52 45 44 44 46 50 55 57 57 56 58 61 60 59 60 59 59 59 58 58 57 57 57 57 56 56 54 54 54 54 52 52
21 22 22 22 22 21 23 20 20 20 21 25 37 41 48 49 48 43 40 40 44 45 49 54 56 56 55 54 53 52 53 54 54 54 54 56 57 56 56 56 53 54 55 55 54 57 57 55 54
27 25 23 23 23 24 22 22 21 20 21 23 33 33 35 37 39 36 35 37 39 42 47 52 53 54 54 52 52 50 49 48 50 52 53 54 55 55 56 54 54 53 54 53 52 51 51 51 53
26 23 23 24 22 17 17 14 14 16 22 23 29 31 32 33 36 36 33 34 34 40 44 49 50 51 50 52 50 49 47 47 49 50 50 50 52 49 52 50 51 51 52 52 49 48 46 46 47
26 23 20 22 23 18 14 12 14 18 22 22 23 27 31 32 33 34 34 33 34 38 43 45 47 49 49 50 49 48 47 46 47 49 49 47 49 48 47 47 46 45 47 47 39 39 37 38 39
21 17 19 21 20 21 17 16 20 23 22 22 22 23 27 27 28 30 32 33 33 38 41 40 42 46 45 46 46 43 43 41 45 49 48 47 47 46 44 47 45 42 43 41 39 38 38 37 37
18 17 17 21 21 25 22 21 23 23 21 20 20 21 22 24 25 28 31 34 36 37 38 38 33 40 40 39 39 40 41 40 43 48 47 47 46 44 41 44 43 41 41 41 40 37 39 39 37
21 20 21 23 24 26 24 24 25 21 20 22 24 25 27 30 33 34 34 36 35 35 35 36 34 34 38 36 36 36 38 39 40 42 46 46 44 43 40 41 43 42 40 40 39 39 38 37 38
21 24 24 25 26 28 26 25 21 19 19 24 25 25 26 28 32 33 33 33 34 34 33 33 33 35 36 35 35 35 35 37 38 40 41 45 44 42 40 40 41 41 41 39 40 40 39 39 39
21 25 25 25 28 28 26 23 18 20 24 24 25 25 25 27 29 32 33 32 33 34 34 35 34 34 36 36 35 36 37 37 37 37 39 41 43 43 41 40 41 39 40 39 37 38 37 36 39
21 25 27 27 27 23 27 23 21 19 21 24 25 25 25 27 29 28 29 31 35 35 36 37 37 36 36 37 35 34 33 33 34 35 36 39 41 41 42 41 41 40 41 39 40 39 39 38 36
23 27 29 29 28 26 25 21 18 19 19 22 26 28 29 29 30 30 31 33 32 35 37 39 39 39 39 39 38 37 34 35 36 37 35 36 39 41 42 42 42 42 41 38 34 33 31 35 34
30 30 31 31 28 25 25 23 20 22 23 27 29 28 30 30 31 32 33 34 36 36 37 39 39 39 40 41 40 39 38 37 37 37 38 38 39 39 40 38 37 36 36 35 34 33 32 32 33
30 30 26 23 24 23 27 25 22 25 26 26 27 29 30 30 32 32 32 33 35 36 37 38 39 39 41 41 41 41 41 40 39 37 37 39 38 36 34 34 35 35 36 37 37 38 37 36 34
29 30 26 22 24 25 28 24 24 29 31 31 27 29 30 30 32 34 36 36 37 38 39 39 40 41 40 41 41 41 42 43 42 41 39 38 36 36 35 36 38 38 39 39 40 39 38 37 34
30 29 31 27 28 26 27 28 27 27 31 33 33 33 33 34 36 35 37 38 38 39 40 40 40 40 40 41 41 39 39 41 41 37 36 36 35 35 37 38 40 41 41 40 39 37 35 35 34
31 32 28 29 20 25 27 26 26 29 32 33 33 34 35 36 36 36 37 38 39 40 40 42 41 40 41 41 37 36 36 36 35 34 33 34 36 38 39 41 41 41 39 37 35 35 34 33 32
30 31 31 32 30 26 25 28 31 31 33 34 33 34 34 35 36 37 38 39 39 40 41 41 41 41 41 38 35 35 32 33 32 32 33 33 36 38 39 40 38 37 36 35 34 32 32 31 30
33 32 33 27 29 29 30 28 31 33 32 34 34 34 36 36 38 39 39 40 40 39 40 40 41 41 38 34 34 34 32 31 30 31 32 33 34 35 36 36 34 34 34 32 31 30 29 29 27
Lifted_Index
11 11 9 7 5 4 3 3 2 1 -2 -3 -3 -3 -3 -3 -3 -4 -5 -5 -5 -4 -4 -4 -5 -6 -7 -7 -8 -8 -8 -9 -9 -8 -8 -8 -8 -7 -7 -6 -5 -4 -4 -5 -6 -6 -6 -5 -5
10 9 8 5 4 3 3 3 2 -1 -2 -3 -3 -4 -4 -4 -4 -5 -5 -5 -5 -5 -4 -4 -5 -6 -7 -7 -7 -7 -7 -8 -8 -8 -8 -8 -7 -7 -6 -6 -5 -4 -4 -5 -6 -6 -5 -4 -4
9 7 6 4 3 3 3 3 1 -1 -2 -3 -4 -4 -4 -5 -5 -6 -6 -6 -5 -5 -5 -4 -5 -6 -6 -7 -7 -7 -7 -7 -7 -8 -8 -7 -7 -6 -6 -5 -5 -5 -5 -5 -5 -5 -5 -4 -3
6 5 4 3 3 3 3 2 1 -1 -2 -3 -4 -4 -5 -5 -6 -6 -6 -6 -5 -4 -4 -4 -4 -5 -6 -6 -6 -6 -6 -6 -6 -7 -7 -7 -6 -6 -5 -5 -5 -5 -5 -5 -5 -4 -4 -3 -2
5 4 3 3 2 2 2 2 1 -0 -1 -2 -3 -3 -4 -5 -6 -6 -6 -6 -5 -4 -4 -4 -4 -4 -5 -5 -5 -5 -5 -5 -6 -6 -6 -6 -6 -6 -5 -5 -5 -4 -4 -4 -4 -3 -3 -2 -2
3 3 2 2 2 2 2 2 2 1 0 -1 -1 -2 -4 -5 -6 -6 -6 -6 -5 -4 -4 -5 -5 -4 -4 -4 -4 -4 -4 -5 -5 -5 -5 -5 -5 -5 -5 -4 -4 -4 -3 -3 -3 -2 -2 -2 -2
3 3 3 2 2 2 3 3 3 3 2 1 -0 -1 -3 -5 -6 -6 -6 -6 -6 -5 -5 -5 -5 -4 -4 -3 -3 -3 -3 -4 -4 -5 -5 -4 -4 -4 -3 -4 -4 -3 -3 -3 -3 -2 -2 -2 -1
3 3 3 3 3 3 3 4 4 4 3 2 0 -0 -2 -5 -6 -6 -6 -6 -6 -6 -6 -6 -5 -5 -4 -3 -3 -3 -3 -3 -4 -4 -4 -3 -3 -2 -2 -2 -3 -3 -2 -3 -3 -2 -2 -2 -1
4 3 3 3 3 3 4 4 4 4 4 2 0 -1 -2 -4 -5 -5 -5 -5 -5 -5 -5 -4 -4 -4 -4 -3 -3 -3 -2 -3 -3 -3 -3 -3 -2 -2 -1 -1 -1 -1 -1 -1 -2 -2 -2 -2 -1
3 3 3 3 3 4 4 4 5 5 4 1 -1 -1 -2 -4 -4 -4 -4 -4 -4 -4 -2 -2 -3 -3 -4 -3 -3 -3 -3 -3 -3 -3 -3 -3 -2 -2 -1 -1 -1 -1 -0 -0 0 0 0 0 -0
3 3 3 3 4 4 4 5 5 5 4 1 -1 -2 -3 -3 -3 -3 -3 -4 -3 -2 -1 -0 -1 -2 -3 -3 -3 -3 -3 -3 -3 -3 -2 -2 -2 -2 -1 -1 -0 0 1 1 2 2 2 2 2
3 3 3 3 4 4 4 4 5 5 4 3 0 -2 -2 -3 -2 -2 -2 -2 -2 -0 1 1 -0 -1 -2 -2 -3 -3 -2 -2 -2 -2 -1 -1 -1 -1 -0 -0 0 1 2 2 2 3 3 3 3
3 3 4 4 4 4 4 4 4 5 5 4 2 -0 -1 -1 -1 -1 -0 0 1 1 2 2 1 0 -1 -1 -2 -2 -1 -1 -1 -0 0 1 1 1 1 1 2 2 3 3 3 4 4 4 4
4 4 4 4 4 4 5 4 4 4 5 4 3 2 2 1 1 1 1 2 2 3 3 3 3 2 1 1 0 0 0 1 1 2 2 2 2 2 2 2 2 3 4 5 5 6 7 7 7
4 4 4 4 4 4 5 4 4 4 4 4 4 4 4 4 3 3 3 3 3 4 4 4 4 3 3 2 2 2 3 3 4 4 4 4 4 3 3 3 3 4 5 7 8 9 9 10 9
4 4 4 4 4 5 5 4 4 4 4 4 5 5 5 4 4 4 3 3 4 5 5 5 5 4 4 4 4 4 5 6 6 6 6 6 5 5 5 5 5 6 7 8 10 10 11 11 11
4 4 4 4 4 4 4 4 4 4 4 5 5 5 5 5 5 5 4 4 5 5 5 5 5 5 5 5 6 6 7 7 7 7 7 7 7 7 7 7 7 8 9 10 10 10 10 10 11
4 4 4 4 4 4 4 4 4 4 4 4 5 5 5 5 5 5 5 5 5 5 6 6 6 6 6 6 7 7 8 8 8 8 7 7 7 8 8 9 9 9 10 10 10 10 10 10 10
4 4 3 4 4 4 4 4 4 4 4 4 4 5 5 5 5 5 5 5 5 5 5 5 5 6 6 6 7 7 7 8 8 8 8 7 7 8 8 9 9 9 10 9 9 10 10 10 10
5 4 4 4 4 4 4 3 3 3 3 4 4 5 5 4 4 5 5 5 5 5 5 5 5 5 5 6 6 7 7 7 8 8 8 7 7 7 8 8 8 9 9 9 9 9 10 10 10
4 4 4 4 4 3 3 3 3 3 3 4 4 4 4 4 4 5 5 5 5 5 5 5 4 4 5 5 6 6 6 7 7 7 7 8 8 8 8 8 8 9 9 9 9 9 9 9 9
4 5 4 4 3 3 2 2 3 3 3 4 4 4 4 4 4 5 5 5 5 5 5 5 4 4 5 5 6 6 6 6 6 6 6 7 7 8 8 8 8 8 9 9 9 9 9 9 8
5 5 5 4 3 2 2 2 2 3 3 3 4 4 4 4 4 5 5 5 4 4 4 4 4 4 5 5 6 6 6 6 5 5 5 6 6 7 7 7 7 8 8 8 8 9 9 8 8
5 4 4 3 2 2 2 2 2 3 3 3 3 3 3 4 4 4 4 4 4 3 3 4 4 4 5 5 5 5 4 5 4 4 4 4 5 6 6 7 6 7 7 7 7 8 8 8 7
4 4 2 1 1 1 2 2 3 3 3 2 2 2 3 3 3 3 3 3 3 3 3 4 4 4 4 4 4 4 4 4 4 4 4 4 5 6 6 6 6 6 6 6 6 7 7 7 7
4 3 2 1 1 1 2 2 2 2 2 2 2 2 2 2 3 3 2 2 2 3 3 4 4 4 4 4 4 4 4 4 4 4 4 4 5 6 7 7 6 6 6 5 5 6 6 6 7
3 3 3 2 2 2 2 3 2 2 1 1 2 2 2 2 2 2 2 2 3 3 4 4 4 4 4 4 5 5 5 5 5 5 5 5 5 6 7 7 6 6 5 5 6 6 7 7 8
3 3 3 3 2 2 2 3 2 2 1 1 1 2 2 2 1 2 2 3 3 3 4 4 4 4 5 6 6 6 6 6 6 6 6 6 6 7 7 7 7 6 6 7 7 7 8 8 9
3 3 3 3 3 2 3 3 2 2 2 2 2 2 2 1 1 2 2 3 3 3 4 4 5 5 6 6 7 7 7 8 7 7 6 7 7 8 8 7 7 7 8 8 8 8 9 9 9
3 3 3 3 3 3 3 3 2 2 2 2 2 2 2 2 2 2 2 3 3 3 4 5 6 6 6 7 7 7 8 8 8 7 7 7 8 8 8 8 8 8 8 8 8 9 9 10 10